TimeCDT,TemperatureF,Dew PointF,Humidity,Sea Level PressureIn,VisibilityMPH,Wind Direction,Wind SpeedMPH,Gust SpeedMPH,PrecipitationIn,Events,Conditions,WindDirDegrees,DateUTC
12:16 AM,33.8,32.0,93,29.78,5.0,Calm,Calm,-,N/A,,Clear,0,2012-10-14 05:16:00
12:36 AM,32.0,32.0,100,29.79,3.0,Calm,Calm,-,N/A,,Clear,0,2012-10-14 05:36:00
12:56 AM,32.0,32.0,100,29.79,2.5,Calm,Calm,-,N/A,,Scattered Clouds,0,2012-10-14 05:56:00
1:16 AM,33.8,33.8,100,29.78,3.0,Calm,Calm,-,N/A,,Mostly Cloudy,0,2012-10-14 06:16:00
1:36 AM,33.8,33.8,100,29.78,0.5,Calm,Calm,-,N/A,Fog,Fog,0,2012-10-14 06:36:00
1:56 AM,33.8,33.8,100,29.78,0.2,Calm,Calm,-,N/A,Fog,Fog,0,2012-10-14 06:56:00
2:16 AM,35.6,35.6,100,29.78,0.2,Calm,Calm,-,N/A,Fog,Fog,0,2012-10-14 07:16:00
2:36 AM,35.6,35.6,100,29.79,0.2,Calm,Calm,-,N/A,Fog,Fog,0,2012-10-14 07:36:00
2:56 AM,37.4,35.6,93,29.79,0.2,Calm,Calm,-,N/A,Fog,Fog,0,2012-10-14 07:56:00
3:16 AM,37.4,37.4,100,29.80,0.2,Calm,Calm,-,N/A,Fog,Fog,0,2012-10-14 08:16:00
3:36 AM,39.2,37.4,93,29.79,0.2,Calm,Calm,-,N/A,Fog,Fog,0,2012-10-14 08:36:00
3:56 AM,37.4,37.4,100,29.80,0.2,Calm,Calm,-,N/A,Fog,Fog,0,2012-10-14 08:56:00
4:16 AM,37.4,37.4,100,29.81,0.5,Calm,Calm,-,N/A,Fog,Fog,0,2012-10-14 09:16:00
4:36 AM,37.4,37.4,100,29.82,0.2,Calm,Calm,-,N/A,Fog,Fog,0,2012-10-14 09:36:00
4:56 AM,37.4,37.4,100,29.81,0.5,Calm,Calm,-,N/A,Fog,Fog,0,2012-10-14 09:56:00
5:16 AM,37.4,37.4,100,29.82,1.0,Calm,Calm,-,N/A,,Overcast,0,2012-10-14 10:16:00
5:36 AM,37.4,37.4,100,29.82,1.0,Calm,Calm,-,N/A,,Overcast,0,2012-10-14 10:36:00
5:56 AM,37.4,37.4,100,29.83,5.0,Calm,Calm,-,N/A,,Overcast,0,2012-10-14 10:56:00
6:16 AM,37.4,37.4,100,29.83,4.0,Calm,Calm,-,N/A,,Overcast,0,2012-10-14 11:16:00
6:36 AM,37.4,37.4,100,29.83,5.0,Calm,Calm,-,N/A,,Overcast,0,2012-10-14 11:36:00
6:56 AM,39.2,37.4,93,29.82,7.0,Calm,Calm,-,N/A,,Overcast,0,2012-10-14 11:56:00
7:16 AM,39.2,37.4,93,29.83,7.0,Calm,Calm,-,N/A,,Overcast,0,2012-10-14 12:16:00
7:36 AM,37.4,37.4,100,29.83,7.0,Calm,Calm,-,N/A,,Mostly Cloudy,0,2012-10-14 12:36:00
7:56 AM,37.4,37.4,100,29.84,5.0,Calm,Calm,-,N/A,,Overcast,0,2012-10-14 12:56:00
8:16 AM,39.2,37.4,93,29.84,4.0,NNW,4.6,-,N/A,,Overcast,330,2012-10-14 13:16:00
8:36 AM,39.2,37.4,93,29.84,4.0,Calm,Calm,-,N/A,,Overcast,0,2012-10-14 13:36:00
8:56 AM,39.2,39.2,100,29.85,4.0,North,3.5,-,N/A,,Overcast,350,2012-10-14 13:56:00
9:16 AM,39.2,39.2,100,29.85,5.0,Calm,Calm,-,N/A,,Overcast,0,2012-10-14 14:16:00
9:36 AM,39.2,39.2,100,29.85,5.0,Calm,Calm,-,N/A,,Overcast,0,2012-10-14 14:36:00
9:56 AM,41.0,41.0,100,29.85,5.0,North,4.6,-,N/A,,Overcast,10,2012-10-14 14:56:00
10:16 AM,42.8,42.8,100,29.85,5.0,North,3.5,-,N/A,,Overcast,360,2012-10-14 15:16:00
10:36 AM,44.6,42.8,93,29.85,7.0,Calm,Calm,-,N/A,,Overcast,0,2012-10-14 15:36:00
10:56 AM,44.6,44.6,100,29.85,10.0,NNE,3.5,-,N/A,,Mostly Cloudy,30,2012-10-14 15:56:00
11:16 AM,46.4,42.8,87,29.85,10.0,North,3.5,-,N/A,,Mostly Cloudy,360,2012-10-14 16:16:00
11:36 AM,48.2,42.8,82,29.85,10.0,North,4.6,-,N/A,,Scattered Clouds,10,2012-10-14 16:36:00
11:56 AM,50.0,42.8,76,29.84,10.0,North,3.5,-,N/A,,Clear,350,2012-10-14 16:56:00
12:16 PM,51.8,42.8,71,29.84,10.0,North,4.6,-,N/A,,Scattered Clouds,350,2012-10-14 17:16:00
12:36 PM,51.8,42.8,71,29.83,10.0,NW,4.6,-,N/A,,Scattered Clouds,320,2012-10-14 17:36:00
12:56 PM,53.6,39.2,58,29.83,10.0,NNW,6.9,-,N/A,,Scattered Clouds,330,2012-10-14 17:56:00
1:16 PM,53.6,39.2,58,29.83,10.0,North,4.6,-,N/A,,Clear,360,2012-10-14 18:16:00
1:36 PM,53.6,39.2,58,29.83,10.0,NNW,8.1,-,N/A,,Scattered Clouds,330,2012-10-14 18:36:00
1:56 PM,55.4,39.2,54,29.82,10.0,NE,4.6,-,N/A,,Scattered Clouds,50,2012-10-14 18:56:00
2:16 PM,55.4,39.2,54,29.83,10.0,WNW,8.1,-,N/A,,Scattered Clouds,290,2012-10-14 19:16:00
2:36 PM,53.6,39.2,58,29.82,10.0,WNW,6.9,-,N/A,,Scattered Clouds,290,2012-10-14 19:36:00
3:16 PM,53.6,39.2,58,29.83,10.0,WNW,6.9,-,N/A,,Scattered Clouds,290,2012-10-14 20:16:00
3:36 PM,53.6,39.2,58,29.83,10.0,WNW,5.8,-,N/A,,Mostly Cloudy,300,2012-10-14 20:36:00
3:56 PM,53.6,39.2,58,29.82,10.0,NW,8.1,-,N/A,,Scattered Clouds,310,2012-10-14 20:56:00
4:17 PM,53.6,39.2,58,29.83,10.0,WNW,9.2,-,N/A,,Scattered Clouds,290,2012-10-14 21:17:00
4:36 PM,55.4,39.2,54,29.83,10.0,WNW,8.1,-,N/A,,Scattered Clouds,300,2012-10-14 21:36:00
4:56 PM,53.6,39.2,58,29.83,10.0,WNW,6.9,-,N/A,,Clear,290,2012-10-14 21:56:00
5:16 PM,53.6,37.4,54,29.83,10.0,WNW,6.9,-,N/A,,Clear,300,2012-10-14 22:16:00
5:36 PM,53.6,35.6,51,29.84,10.0,WNW,5.8,-,N/A,,Clear,300,2012-10-14 22:36:00
5:56 PM,53.6,35.6,51,29.84,10.0,NW,3.5,-,N/A,,Clear,310,2012-10-14 22:56:00
6:16 PM,51.8,33.8,50,29.84,10.0,NW,3.5,-,N/A,,Clear,320,2012-10-14 23:16:00
6:36 PM,48.2,33.8,58,29.85,10.0,Calm,Calm,-,N/A,,Clear,0,2012-10-14 23:36:00
6:56 PM,48.2,33.8,58,29.85,10.0,NNW,3.5,-,N/A,,Clear,330,2012-10-14 23:56:00
7:16 PM,48.2,32.0,54,29.85,10.0,NW,3.5,-,N/A,,Clear,320,2012-10-15 00:16:00
7:36 PM,46.4,32.0,57,29.85,10.0,NNW,3.5,-,N/A,,Clear,330,2012-10-15 00:36:00
7:56 PM,46.4,33.8,62,29.86,10.0,Calm,Calm,-,N/A,,Clear,0,2012-10-15 00:56:00
8:16 PM,44.6,32.0,61,29.86,10.0,Calm,Calm,-,N/A,,Clear,0,2012-10-15 01:16:00
8:36 PM,42.8,33.8,70,29.87,10.0,Calm,Calm,-,N/A,,Clear,0,2012-10-15 01:36:00
8:56 PM,42.8,33.8,70,29.87,10.0,WNW,3.5,-,N/A,,Clear,300,2012-10-15 01:56:00
9:16 PM,41.0,33.8,76,29.87,10.0,Calm,Calm,-,N/A,,Clear,0,2012-10-15 02:16:00
9:36 PM,41.0,32.0,70,29.87,10.0,NW,4.6,-,N/A,,Clear,310,2012-10-15 02:36:00
9:56 PM,42.8,33.8,70,29.87,10.0,WNW,4.6,-,N/A,,Clear,300,2012-10-15 02:56:00
10:16 PM,39.2,33.8,81,29.88,10.0,WNW,3.5,-,N/A,,Clear,290,2012-10-15 03:16:00
10:36 PM,39.2,33.8,81,29.88,10.0,WNW,3.5,-,N/A,,Clear,300,2012-10-15 03:36:00
10:56 PM,41.0,33.8,76,29.88,10.0,WNW,3.5,-,N/A,,Clear,300,2012-10-15 03:56:00
11:16 PM,39.2,33.8,81,29.88,10.0,WNW,3.5,-,N/A,,Clear,300,2012-10-15 04:16:00
11:36 PM,39.2,33.8,81,29.89,10.0,WNW,4.6,-,N/A,,Clear,290,2012-10-15 04:36:00
11:56 PM,37.4,33.8,87,29.89,10.0,WNW,3.5,-,N/A,,Clear,290,2012-10-15 04:56:00